| time (UTC) | temp F | wind direction | speed knots | gust knots | rain 1hr in | rain 24hr in | rain mn in | humidity % | barometer mb |
| 20260502193616 | 0 | 10 | 9.6 | 13.9 | 0.00 | 1.33 | 0.00 | 1016.4 | |
| 20260502193102 | 0 | 67 | 9.6 | 12.2 | 0.00 | 1.33 | 0.00 | 1016.5 | |
| 20260502192555 | 0 | 47 | 10.4 | 13.0 | 0.00 | 1.33 | 0.00 | 1016.5 | |
| 20260502192045 | 0 | 59 | 10.4 | 13.9 | 0.00 | 1.33 | 0.00 | 1016.5 | |
| 20260502191534 | 0 | 46 | 10.4 | 14.8 | 0.00 | 1.33 | 0.00 | 1016.6 | |
| 20260502191024 | 0 | 40 | 9.6 | 14.8 | 0.00 | 1.33 | 0.00 | 1016.5 | |
| 20260502190745 | 0 | 19 | 9.6 | 13.0 | 0.00 | 1.33 | 0.00 | 1016.5 | |
| 20260502190236 | 0 | 39 | 9.6 | 13.0 | 0.00 | 1.33 | 0.00 | 1016.5 | |
| 20260502185457 | 0 | 10 | 10.4 | 13.0 | 0.00 | 1.33 | 0.00 | 1016.6 | |
| 20260502184954 | 0 | 43 | 10.4 | 13.9 | 0.00 | 1.33 | 0.00 | 1016.8 | |
| 20260502184444 | 0 | 38 | 9.6 | 13.0 | 0.00 | 1.33 | 0.00 | 1016.9 | |
| 20260502183934 | 0 | 10 | 9.6 | 13.9 | 0.00 | 1.33 | 0.00 | 1016.9 | |
| 20260502183426 | 0 | 29 | 9.6 | 13.9 | 0.00 | 1.33 | 0.00 | 1017.0 | |
| 20260502183140 | 0 | 50 | 9.6 | 13.9 | 0.00 | 1.33 | 0.00 | 1017.0 | |
| 20260502182401 | 0 | 45 | 8.7 | 13.9 | 0.00 | 1.33 | 0.00 | 1017.1 | |
| 20260502181856 | 0 | 53 | 9.6 | 13.9 | 0.00 | 1.33 | 0.00 | 1017.1 | |
| 20260502181346 | 0 | 59 | 10.4 | 13.9 | 0.00 | 1.33 | 0.00 | 1017.2 | |
| 20260502180840 | 0 | 10 | 9.6 | 13.0 | 0.00 | 1.33 | 0.00 | 1017.3 | |
| 20260502180334 | 0 | 15 | 9.6 | 13.0 | 0.00 | 1.33 | 0.00 | 1017.3 | |
| 20260502170235 | 0 | 10 | 7.8 | 12.2 | 0.00 | 1.33 | 0.00 | 1018.0 | |
| 20260502164213 | 0 | 10 | 7.8 | 12.2 | 0.00 | 1.33 | 0.00 | 1018.1 | |
| 20260502163702 | 0 | 19 | 8.7 | 13.0 | 0.00 | 1.33 | 0.00 | 1018.1 | |
| 20260502163200 | 0 | 10 | 8.7 | 13.0 | 0.00 | 1.34 | 0.00 | 1018.2 | |
| 20260502162650 | 0 | 10 | 8.7 | 12.2 | 0.00 | 1.35 | 0.00 | 1018.0 | |
| 20260502162145 | 0 | 45 | 8.7 | 12.2 | 0.00 | 1.35 | 0.00 | 1018.0 | |
| 20260502161642 | 0 | 30 | 7.8 | 12.2 | 0.00 | 1.35 | 0.00 | 1018.1 | |
| 20260502161136 | 0 | 19 | 7.8 | 12.2 | 0.00 | 1.35 | 0.00 | 1018.0 | |
| 20260502160634 | 0 | 38 | 7.8 | 11.3 | 0.00 | 1.35 | 0.00 | 1018.0 | |
| 20260502160130 | 0 | 359 | 7.8 | 11.3 | 0.00 | 1.35 | 0.00 | 1018.0 | |
| 20260502152023 | 0 | 15 | 8.7 | 13.0 | 0.00 | 1.35 | 0.00 | 1017.5 | |
| 20260502151746 | 0 | 54 | 8.7 | 13.0 | 0.00 | 1.35 | 0.00 | 1017.4 | |
| 20260502151236 | 0 | 55 | 7.8 | 12.2 | 0.00 | 1.35 | 0.00 | 1017.5 | |
| 20260502150456 | 0 | 46 | 7.8 | 12.2 | 0.00 | 1.35 | 0.00 | 1017.4 | |
| 20260502130615 | 0 | 10 | 8.7 | 13.0 | 0.00 | 1.35 | 0.00 | 1016.4 | |
| 20260502130106 | 0 | 10 | 7.8 | 13.0 | 0.00 | 1.35 | 0.00 | 1016.4 | |
| 20260502123517 | 0 | 10 | 7.0 | 10.4 | 0.00 | 1.35 | 0.00 | 1016.2 | |
| 20260502123007 | 0 | 10 | 7.0 | 10.4 | 0.00 | 1.35 | 0.00 | 1016.1 | |
| 20260502122458 | 0 | 10 | 7.0 | 9.6 | 0.00 | 1.35 | 0.00 | 1016.0 | |
| 20260502121947 | 0 | 0 | 7.0 | 10.4 | 0.00 | 1.35 | 0.00 | 1015.9 | |
| 20260502121438 | 0 | 5 | 7.0 | 10.4 | 0.00 | 1.35 | 0.00 | 1015.7 | |
| 20260502120927 | 0 | 10 | 7.0 | 10.4 | 0.00 | 1.35 | 0.00 | 1015.6 | |
| 20260502120418 | 0 | 10 | 7.0 | 10.4 | 0.00 | 1.35 | 0.00 | 1015.5 | |
| 20260502120143 | 0 | 10 | 6.1 | 10.4 | 0.00 | 1.35 | 0.00 | 1015.4 | |
| 20260502115401 | 0 | 5 | 7.0 | 10.4 | 0.00 | 1.35 | 0.00 | 1015.4 | |
| 20260502114852 | 0 | 10 | 6.1 | 10.4 | 0.00 | 1.35 | 0.00 | 1015.3 | |
| 20260502114612 | 0 | 10 | 4.3 | 9.6 | 0.00 | 1.35 | 0.00 | 1015.3 | |
| 20260502113829 | 0 | 10 | 3.5 | 7.8 | 0.00 | 1.35 | 0.00 | 1015.3 | |
| 20260502113318 | 0 | 10 | 4.3 | 10.4 | 0.00 | 1.35 | 0.00 | 1015.3 | |
| 20260502112807 | 0 | 5 | 3.5 | 10.4 | 0.00 | 1.35 | 0.00 | 1015.2 | |
| 20260502112258 | 0 | 10 | 3.5 | 8.7 | 0.00 | 1.35 | 0.00 | 1015.1 | |
| 20260502111748 | 0 | 339 | 4.3 | 8.7 | 0.00 | 1.35 | 0.00 | 1015.1 | |
| 20260502111236 | 0 | 10 | 4.3 | 10.4 | 0.00 | 1.35 | 0.00 | 1015.0 | |
| 20260502110725 | 0 | 347 | 4.3 | 8.7 | 0.00 | 1.35 | 0.00 | 1014.8 | |
| 20260502110226 | 0 | 10 | 5.2 | 8.7 | 0.00 | 1.35 | 0.00 | 1014.7 | |
| 20260502105946 | 0 | 10 | 4.3 | 8.7 | 0.00 | 1.35 | 0.00 | 1014.7 | |
| 20260502105203 | 0 | 10 | 4.3 | 8.7 | 0.00 | 1.35 | 0.00 | 1014.7 | |
| 20260502104645 | 0 | 10 | 3.5 | 8.7 | 0.00 | 1.35 | 0.00 | 1014.6 | |
| 20260502104135 | 0 | 26 | 4.3 | 8.7 | 0.00 | 1.35 | 0.00 | 1014.5 | |
| 20260502103856 | 0 | 22 | 5.2 | 9.6 | 0.00 | 1.35 | 0.00 | 1014.4 | |
| 20260502103116 | 0 | 10 | 5.2 | 9.6 | 0.00 | 1.35 | 0.00 | 1014.3 | |
| 20260502102605 | 0 | 10 | 4.3 | 8.7 | 0.00 | 1.35 | 0.00 | 1014.2 | |
| 20260502102055 | 0 | 10 | 2.6 | 7.8 | 0.00 | 1.35 | 0.00 | 1014.0 | |
| 20260502101816 | 0 | 28 | 3.5 | 9.6 | 0.00 | 1.35 | 0.00 | 1013.9 | |
| 20260502101028 | 0 | 10 | 3.5 | 9.6 | 0.00 | 1.35 | 0.00 | 1013.8 | |
| 20260502100517 | 0 | 10 | 1.7 | 7.0 | 0.00 | 1.35 | 0.00 | 1013.7 | |
| 20260502091322 | 0 | 19 | 5.2 | 10.4 | 0.00 | 1.35 | 0.00 | 1013.8 | |
| 20260502090811 | 0 | 10 | 5.2 | 10.4 | 0.00 | 1.35 | 0.00 | 1013.8 | |
| 20260502090532 | 0 | 15 | 5.2 | 10.4 | 0.00 | 1.35 | 0.00 | 1013.6 | |
| 20260502071510 | 0 | 27 | 7.0 | 11.3 | 0.00 | 1.35 | 0.00 | 1012.8 | |
| 20260502071007 | 0 | 10 | 7.0 | 11.3 | 0.00 | 1.35 | 0.00 | 1012.8 | |
| 20260502070504 | 0 | 58 | 7.0 | 10.4 | 0.00 | 1.35 | 0.00 | 1013.0 | |
| 20260502065959 | 0 | 10 | 7.8 | 13.0 | 0.00 | 1.35 | 0.00 | 1013.1 | |
| 20260502065453 | 0 | 38 | 7.8 | 13.0 | 0.00 | 1.35 | 0.00 | 1013.1 | |
| 20260502064947 | 0 | 45 | 7.8 | 13.0 | 0.00 | 1.35 | 0.00 | 1013.2 | |
| 20260502064447 | 0 | 39 | 7.0 | 13.0 | 0.00 | 1.35 | 0.00 | 1013.2 | |
| 20260502063941 | 0 | 10 | 7.0 | 12.2 | 0.00 | 1.35 | 0.00 | 1013.1 | |
| 20260502063433 | 0 | 10 | 7.0 | 11.3 | 0.00 | 1.35 | 0.00 | 1013.0 | |
| 20260502062934 | 0 | 22 | 6.1 | 11.3 | 0.00 | 1.35 | 0.00 | 1013.1 | |
| 20260502062430 | 0 | 10 | 6.1 | 11.3 | 0.00 | 1.35 | 0.00 | 1013.0 | |
| 20260502061916 | 0 | 20 | 6.1 | 11.3 | 0.00 | 1.35 | 0.00 | 1012.9 | |
| 20260502061637 | 0 | 1 | 7.8 | 14.8 | 0.00 | 1.35 | 0.00 | 1012.9 | |
| 20260502060901 | 0 | 26 | 8.7 | 14.8 | 0.00 | 1.35 | 0.00 | 1012.9 | |
| 20260502060400 | 0 | 35 | 8.7 | 13.0 | 0.00 | 1.35 | 0.00 | 1012.7 | |
| 20260502055859 | 0 | 1 | 8.7 | 13.9 | 0.00 | 1.35 | 0.00 | 1012.6 | |
| 20260502055353 | 0 | 0 | 7.8 | 12.2 | 0.00 | 1.35 | 0.00 | 1012.5 | |
| 20260502054847 | 0 | 44 | 7.8 | 13.9 | 0.00 | 1.35 | 0.00 | 1012.4 | |
| 20260502054341 | 0 | 39 | 7.8 | 13.0 | 0.00 | 1.35 | 0.00 | 1012.4 | |
| 20260502053835 | 0 | 10 | 7.8 | 13.9 | 0.00 | 1.35 | 0.00 | 1012.4 | |
| 20260502053328 | 0 | 23 | 7.0 | 13.0 | 0.00 | 1.35 | 0.00 | 1012.4 | |
| 20260502052823 | 0 | 34 | 6.1 | 11.3 | 0.00 | 1.35 | 0.00 | 1012.4 | |
| 20260502052318 | 0 | 15 | 7.0 | 10.4 | 0.00 | 1.35 | 0.00 | 1012.3 | |
| 20260502051812 | 0 | 43 | 7.0 | 13.0 | 0.00 | 1.35 | 0.00 | 1012.4 | |
| 20260502051259 | 0 | 10 | 7.8 | 13.0 | 0.00 | 1.35 | 0.00 | 1012.2 | |
| 20260502050751 | 0 | 57 | 8.7 | 14.8 | 0.00 | 1.35 | 0.00 | 1012.3 | |
| 20260502050514 | 0 | 30 | 9.6 | 15.6 | 0.00 | 1.35 | 0.00 | 1012.1 | |
| 20260502045739 | 0 | 35 | 10.4 | 16.5 | 0.00 | 1.35 | 1.35 | 1012.1 | |
| 20260502045233 | 0 | 25 | 9.6 | 15.6 | 0.00 | 1.35 | 1.35 | 1011.9 | |
| 20260502044723 | 0 | 27 | 10.4 | 16.5 | 0.00 | 1.35 | 1.35 | 1011.9 | |
| 20260502044213 | 0 | 10 | 10.4 | 16.5 | 0.00 | 1.35 | 1.35 | 1011.8 | |
| 20260502043704 | 0 | 10 | 9.6 | 18.2 | 0.00 | 1.35 | 1.35 | 1011.7 | |
| 20260502043155 | 0 | 10 | 9.6 | 18.2 | 0.00 | 1.35 | 1.35 | 1011.6 | |
| 20260502042916 | 0 | 10 | 10.4 | 20.9 | 0.00 | 1.35 | 1.35 | 1011.5 | |
| 20260502042136 | 0 | 34 | 11.3 | 20.9 | 0.00 | 1.35 | 1.35 | 1011.4 | |
| 20260502041625 | 0 | 15 | 10.4 | 15.6 | 0.00 | 1.35 | 1.35 | 1011.3 | |
| 20260502041105 | 0 | 21 | 9.6 | 15.6 | 0.00 | 1.35 | 1.35 | 1011.3 | |
| 20260502040827 | 0 | 10 | 9.6 | 13.9 | 0.00 | 1.35 | 1.35 | 1011.3 | |
| 20260502040322 | 0 | 10 | 9.6 | 17.4 | 0.00 | 1.35 | 1.35 | 1011.4 | |
| 20260502035539 | 0 | 10 | 9.6 | 17.4 | 0.00 | 1.35 | 1.35 | 1011.3 | |
| 20260502035029 | 0 | 36 | 8.7 | 14.8 | 0.00 | 1.35 | 1.35 | 1011.3 | |
| 20260502034007 | 0 | 15 | 7.8 | 16.5 | 0.00 | 1.35 | 1.35 | 1011.0 | |
| 20260502033457 | 0 | 346 | 7.8 | 16.5 | 0.00 | 1.35 | 1.35 | 1011.1 | |
| 20260502033218 | 0 | 15 | 8.7 | 14.8 | 0.00 | 1.35 | 1.35 | 1011.2 | |
| 20260502032703 | 0 | 27 | 7.8 | 15.6 | 0.00 | 1.35 | 1.35 | 1011.2 | |
| 20260502031925 | 0 | 46 | 7.8 | 15.6 | 0.00 | 1.35 | 1.35 | 1011.2 | |
| 20260502031416 | 0 | 15 | 7.8 | 14.8 | 0.00 | 1.35 | 1.35 | 1011.0 | |
| 20260502031136 | 0 | 10 | 7.8 | 14.8 | 0.00 | 1.35 | 1.35 | 1010.7 | |
| 20260502030355 | 0 | 40 | 7.0 | 13.9 | 0.00 | 1.35 | 1.35 | 1010.7 | |
| 20260502025846 | 0 | 15 | 7.8 | 14.8 | 0.00 | 1.35 | 1.35 | 1010.6 | |
| 20260502025333 | 0 | 10 | 8.7 | 14.8 | 0.00 | 1.35 | 1.35 | 1010.4 | |
| 20260502024827 | 0 | 38 | 8.7 | 14.8 | 0.00 | 1.35 | 1.35 | 1010.4 | |
| 20260502024317 | 0 | 42 | 8.7 | 16.5 | 0.00 | 1.35 | 1.35 | 1010.2 | |
| 20260502023812 | 0 | 5 | 9.6 | 16.5 | 0.00 | 1.35 | 1.35 | 1010.3 | |
| 20260502023302 | 0 | 34 | 7.8 | 14.8 | 0.00 | 1.35 | 1.35 | 1010.0 | |
| 20260502022801 | 0 | 15 | 7.0 | 13.0 | 0.00 | 1.35 | 1.35 | 1010.1 | |
| 20260502022251 | 0 | 44 | 7.8 | 15.6 | 0.00 | 1.35 | 1.35 | 1009.8 | |
| 20260502021743 | 0 | 37 | 7.8 | 15.6 | 0.01 | 1.35 | 1.35 | 1009.7 | |
| 20260502021232 | 0 | 35 | 7.8 | 14.8 | 0.01 | 1.35 | 1.35 | 1009.8 | |
| 20260502020722 | 0 | 5 | 7.0 | 14.8 | 0.01 | 1.35 | 1.35 | 1009.6 | |
| 20260502020210 | 0 | 10 | 7.0 | 13.9 | 0.01 | 1.35 | 1.35 | 1009.4 | |
| 20260502015706 | 0 | 26 | 7.8 | 13.9 | 0.01 | 1.35 | 1.35 | 1009.4 | |
| 20260502015428 | 0 | 32 | 9.6 | 16.5 | 0.01 | 1.35 | 1.35 | 1009.2 | |
| 20260502014645 | 0 | 33 | 9.6 | 16.5 | 0.01 | 1.35 | 1.35 | 1009.0 | |
| 20260502014135 | 0 | 10 | 7.8 | 15.6 | 0.01 | 1.35 | 1.35 | 1009.1 | |
| 20260502013617 | 0 | 39 | 7.8 | 14.8 | 0.01 | 1.35 | 1.35 | 1009.0 | |
| 20260502013107 | 0 | 25 | 8.7 | 16.5 | 0.01 | 1.35 | 1.35 | 1008.8 | |
| 20260502012558 | 0 | 15 | 8.7 | 16.5 | 0.02 | 1.35 | 1.35 | 1008.8 | |
| 20260502012047 | 0 | 10 | 9.6 | 17.4 | 0.03 | 1.35 | 1.35 | 1008.8 | |
| 20260502011535 | 0 | 31 | 10.4 | 17.4 | 0.04 | 1.34 | 1.34 | 1008.6 | |
| 20260502011025 | 0 | 34 | 9.6 | 15.6 | 0.04 | 1.34 | 1.34 | 1008.6 | |
| 20260502010516 | 0 | 53 | 9.6 | 17.4 | 0.05 | 1.34 | 1.34 | 1008.7 | |
| 20260502010005 | 0 | 52 | 9.6 | 17.4 | 0.05 | 1.34 | 1.34 | 1008.5 | |
| 20260502005454 | 0 | 22 | 8.7 | 15.6 | 0.06 | 1.34 | 1.34 | 1008.4 | |
| 20260502004944 | 0 | 15 | 9.6 | 14.8 | 0.07 | 1.34 | 1.34 | 1008.3 | |
| 20260502004433 | 0 | 10 | 10.4 | 18.2 | 0.07 | 1.34 | 1.34 | 1008.3 | |
| 20260502003923 | 0 | 29 | 10.4 | 17.4 | 0.07 | 1.34 | 1.34 | 1008.3 | |
| 20260502003419 | 0 | 10 | 11.3 | 17.4 | 0.07 | 1.34 | 1.34 | 1008.2 | |
| 20260502002907 | 0 | 10 | 12.2 | 20.0 | 0.07 | 1.34 | 1.34 | 1008.2 | |
| 20260502002358 | 0 | 10 | 11.3 | 20.0 | 0.07 | 1.33 | 1.33 | 1008.2 | |
| 20260502001848 | 0 | 15 | 12.2 | 19.1 | 0.07 | 1.32 | 1.32 | 1008.1 | |
| 20260502001335 | 0 | 10 | 11.3 | 19.1 | 0.08 | 1.30 | 1.30 | 1008.0 | |
| 20260502000825 | 0 | 10 | 11.3 | 17.4 | 0.13 | 1.30 | 1.30 | 1007.9 | |
| 20260502000317 | 0 | 10 | 11.3 | 18.2 | 0.13 | 1.29 | 1.29 | 1007.9 | |
| 20260501235803 | 0 | 19 | 12.2 | 20.9 | 0.12 | 1.28 | 1.29 | 1007.7 | |
| 20260501235253 | 0 | 15 | 12.2 | 20.9 | 0.12 | 1.28 | 1.28 | 1007.5 | |
| 20260501234728 | 0 | 222 | 12.2 | 19.1 | 0.17 | 1.27 | 1.27 | 1007.2 | |
| 20260501234230 | 0 | 354 | 10.4 | 17.4 | 0.28 | 1.27 | 1.27 | 1007.3 | |
| 20260501233949 | 0 | 10 | 10.4 | 16.5 | 0.28 | 1.27 | 1.27 | 1007.3 | |
| 20260501233210 | 0 | 15 | 11.3 | 16.5 | 0.28 | 1.27 | 1.27 | 1007.1 | |
| 20260501232659 | 0 | 358 | 11.3 | 16.5 | 0.28 | 1.27 | 1.27 | 1007.1 | |
| 20260501232149 | 0 | 318 | 12.2 | 16.5 | 0.27 | 1.26 | 1.26 | 1007.0 | |
| 20260501231639 | 0 | 15 | 13.9 | 21.7 | 0.25 | 1.24 | 1.24 | 1006.7 | |
| 20260501231129 | 0 | 346 | 13.9 | 21.7 | 0.19 | 1.18 | 1.19 | 1007.0 | |
| 20260501230619 | 0 | 10 | 9.6 | 20.0 | 0.18 | 1.17 | 1.17 | 1006.5 | |
| 20260501230109 | 0 | 357 | 8.7 | 15.6 | 0.17 | 1.16 | 1.16 | 1005.6 | |
| 20260501225559 | 0 | 15 | 10.4 | 15.6 | 0.17 | 1.16 | 1.16 | 1004.8 | |
| 20260501225320 | 0 | 34 | 8.7 | 13.9 | 0.16 | 1.15 | 1.15 | 1004.2 | |
| 20260501224811 | 0 | 32 | 8.7 | 13.9 | 0.08 | 1.07 | 1.08 | 1004.5 | |
| 20260501224021 | 0 | 44 | 8.7 | 13.0 | 0.00 | 0.99 | 0.99 | 1005.1 | |
| 20260501223512 | 0 | 61 | 9.6 | 13.9 | 0.00 | 0.99 | 0.99 | 1004.6 | |
| 20260501223001 | 0 | 61 | 9.6 | 14.8 | 0.00 | 0.99 | 0.99 | 1004.7 | |
| 20260501222450 | 0 | 52 | 8.7 | 14.8 | 0.00 | 0.99 | 0.99 | 1004.9 | |
| 20260501221940 | 0 | 40 | 7.8 | 12.2 | 0.00 | 0.99 | 0.99 | 1005.3 | |
| 20260501221430 | 0 | 44 | 8.7 | 16.5 | 0.00 | 0.99 | 0.99 | 1005.2 | |
| 20260501220919 | 0 | 41 | 9.6 | 16.5 | 0.00 | 0.99 | 0.99 | 1005.1 | |
| 20260501220410 | 0 | 54 | 8.7 | 13.0 | 0.00 | 0.99 | 0.99 | 1005.2 | |
| 20260501215900 | 0 | 45 | 7.8 | 13.0 | 0.00 | 0.99 | 0.99 | 1005.3 | |
| 20260501215350 | 0 | 51 | 7.0 | 11.3 | 0.00 | 0.99 | 0.99 | 1005.5 | |
| 20260501214843 | 0 | 50 | 6.1 | 11.3 | 0.00 | 0.99 | 0.99 | 1005.5 | |
| 20260501214336 | 0 | 52 | 7.8 | 12.2 | 0.00 | 0.99 | 0.99 | 1005.7 | |
| 20260501213823 | 0 | 44 | 7.8 | 12.2 | 0.00 | 0.99 | 0.99 | 1005.9 | |
| 20260501213316 | 0 | 48 | 6.1 | 11.3 | 0.00 | 0.99 | 0.99 | 1006.2 | |
| 20260501212809 | 0 | 61 | 7.8 | 13.0 | 0.01 | 0.99 | 0.99 | 1006.2 | |
| 20260501211747 | 0 | 63 | 8.7 | 13.9 | 0.01 | 0.99 | 0.99 | 1005.9 | |
| 20260501211238 | 0 | 67 | 9.6 | 13.9 | 0.01 | 0.99 | 0.99 | 1005.9 | |
| 20260501211000 | 0 | 47 | 8.7 | 13.9 | 0.01 | 0.99 | 0.99 | 1005.9 | |
| 20260501210224 | 0 | 34 | 7.0 | 12.2 | 0.01 | 0.99 | 0.99 | 1005.8 | |
| 20260501205948 | 0 | 20 | 6.1 | 11.3 | 0.02 | 0.99 | 0.99 | 1006.0 | |
| 20260501205213 | 0 | 33 | 6.1 | 13.0 | 0.04 | 0.99 | 0.99 | 1006.0 | |
| 20260501204934 | 0 | 30 | 7.0 | 13.0 | 0.54 | 0.99 | 0.99 | 1005.9 | |
| 20260501204431 | 0 | 51 | 7.0 | 14.8 | 0.96 | 0.99 | 0.99 | 1006.0 | |
| 20260501203653 | 0 | 24 | 7.8 | 14.8 | 0.97 | 0.99 | 0.99 | 1005.7 | |
| 20260501203148 | 0 | 15 | 8.7 | 15.6 | 0.97 | 0.99 | 0.99 | 1005.9 | |
| 20260501202646 | 0 | 10 | 7.8 | 15.6 | 0.96 | 0.98 | 0.98 | 1005.9 | |
| 20260501202134 | 0 | 59 | 6.1 | 15.6 | 0.96 | 0.98 | 0.98 | 1006.6 | |
| 20260501201627 | 0 | 338 | 6.1 | 15.6 | 0.96 | 0.98 | 0.98 | 1006.7 | |
| 20260501201124 | 0 | 23 | 8.7 | 22.6 | 0.96 | 0.98 | 0.98 | 1006.0 | |
| 20260501200851 | 0 | 102 | 11.3 | 22.6 | 0.96 | 0.98 | 0.98 | 1004.7 | |
| 20260501200114 | 0 | 338 | 14.8 | 29.5 | 0.95 | 0.97 | 0.97 | 1003.8 | |
| 20260501195611 | 0 | 38 | 19.1 | 29.5 | 0.95 | 0.97 | 0.97 | 1002.1 | |
| 20260501195109 | 0 | 57 | 19.1 | 43.4 | 0.89 | 0.91 | 0.91 | 1002.4 | |
| 20260501194605 | 0 | 50 | 16.5 | 43.4 | 0.23 | 0.25 | 0.39 | 1002.4 | |
| 20260501194100 | 0 | 269 | 13.0 | 22.6 | 0.00 | 0.02 | 0.03 | 1008.4 |